Deer Park, WA
on Sunday, December 23, 2012

Sunday
Previous Day Next Day
Daily Summary
 ActualAverageRecord
Temperature
Mean Temperature °F 24°F  
Max Temperature 38°F 31°F 39°F (2005)
Min Temperature 24°F 18°F -10°F (2008)
Degree Days
Heating Degree Days 34 41  
Month to date heating degree days 734 902  
Since 1 July heating degree days 2471 2905  
Cooling Degree Days 0 0  
Month to date cooling degree days 0 0  
Year to date cooling degree days 232 187  
Moisture
Dew Point 29°F   
Average Humidity 88    
Maximum Humidity 100    
Minimum Humidity 75    
Precipitation
Precipitation 0.11 in 0.10 in 0.40 in (2007)
Month to date precipitation 2.22 2.10  
Year to date precipitation 26.33 21.49  
Wind
Wind Speed 6 mph   
Max Wind Speed 16 mph   
Max Gust Speed 21 mph   
Visibility 6 miles   
Events Fog , Snow   

Key: T is trace of precipitation, MM is missing value
Source: NWS Daily Summary
Time(PST)TemperatureDew PointHumidity Pressure Visibility Wind DirectionWind SpeedGust SpeedPrecipitationEvents Conditions
12:09 AM 24.8°F 24.8°F 100% 29.80 in 1.8 miles Calm Calm - N/A   Clear
12:20 AM 24.8°F 24.8°F 100% 29.81 in 0.5 miles Calm Calm - N/A Fog Light Freezing Fog
12:36 AM 26.6°F 24.8°F 93% 29.81 in 1.2 miles Calm Calm - N/A   Scattered Clouds
12:53 AM 27.0°F 27.0°F 100% 29.87 in 1.0 miles Calm Calm - N/A   Mostly Cloudy
1:09 AM 26.6°F 26.6°F 100% 29.82 in 4.0 miles Calm Calm - N/A   Overcast
1:53 AM 30.9°F 30.0°F 96% 29.88 in 10.0 miles Calm Calm - N/A   Overcast
2:53 AM 30.0°F 28.9°F 96% 29.90 in 10.0 miles Calm Calm - N/A   Overcast
3:53 AM 30.0°F 30.0°F 100% 29.91 in 8.0 miles Calm Calm - 0.01 in Snow Light Snow
4:07 AM 30.2°F 30.2°F 100% 29.86 in 4.0 miles Calm Calm - 0.00 in Snow Light Snow
4:25 AM 32.0°F 30.2°F 93% 29.85 in 2.5 miles NNE 3.5 mph - 0.00 in Snow Light Snow
4:32 AM 32.0°F 30.2°F 93% 29.85 in 8.0 miles NE 3.5 mph - 0.00 in   Overcast
4:53 AM 30.9°F 30.0°F 96% 29.91 in 9.0 miles ENE 3.5 mph - 0.00 in   Overcast
5:24 AM 28.4°F 28.4°F 100% 29.85 in 1.5 miles NNE 3.5 mph - N/A   Mostly Cloudy
5:33 AM 28.4°F 26.6°F 93% 29.85 in 0.8 miles Calm Calm - N/A   Mostly Cloudy
5:45 AM 26.6°F 26.6°F 100% 29.86 in 0.5 miles Calm Calm - N/A Fog Light Freezing Fog
5:53 AM 27.0°F 27.0°F 100% 29.92 in 0.5 miles Calm Calm - N/A Fog Light Freezing Fog
6:17 AM 28.4°F 28.4°F 100% 29.86 in 2.0 miles NNE 3.5 mph - N/A   Overcast
6:32 AM 28.4°F 26.6°F 93% 29.87 in 8.0 miles Calm Calm - N/A   Overcast
6:53 AM 30.0°F 28.9°F 96% 29.92 in 10.0 miles Calm Calm - N/A   Overcast
7:53 AM 30.9°F 30.0°F 96% 29.93 in 10.0 miles NE 3.5 mph - N/A   Overcast
10:53 AM 36.0°F 32.0°F 86% 29.91 in 10.0 miles NE 4.6 mph - N/A   Clear
11:53 AM 37.9°F 30.9°F 76% 29.87 in 10.0 miles NE 5.8 mph - N/A   Clear
12:53 PM 37.9°F 33.1°F 83% 29.83 in 10.0 miles NE 6.9 mph - N/A   Clear
1:53 PM 37.0°F 32.0°F 82% 29.80 in 10.0 miles NE 9.2 mph - N/A   Clear
2:53 PM 36.0°F 30.9°F 82% 29.77 in 10.0 miles NE 8.1 mph - N/A   Clear
3:53 PM 35.1°F 32.0°F 89% 29.75 in 10.0 miles NNE 10.4 mph - N/A   Clear
4:53 PM 35.1°F 30.9°F 85% 29.74 in 10.0 miles NNE 12.7 mph - N/A   Partly Cloudy
5:53 PM 35.1°F 30.0°F 82% 29.70 in 10.0 miles NNE 12.7 mph - N/A   Overcast
6:53 PM 35.1°F 30.0°F 82% 29.66 in 10.0 miles NNE 16.1 mph - N/A   Overcast
7:53 PM 36.0°F 28.9°F 76% 29.67 in 10.0 miles NNE 8.1 mph - N/A   Overcast
8:53 PM 35.1°F 28.9°F 78% 29.67 in 10.0 miles NE 5.8 mph - N/A   Overcast
9:32 PM 35.6°F 28.4°F 75% 29.61 in 8.0 miles NNE 6.9 mph - 0.00 in Snow Light Snow
9:53 PM 36.0°F 28.9°F 76% 29.66 in 9.0 miles NE 11.5 mph - 0.00 in   Overcast
10:18 PM 33.8°F 30.2°F 87% 29.62 in 1.8 miles NE 12.7 mph - 0.00 in Snow Light Snow
10:34 PM 33.8°F 32.0°F 93% 29.62 in 1.2 miles NNE 11.5 mph - 0.01 in Snow Light Snow
10:53 PM 33.1°F 32.0°F 96% 29.67 in 1.0 miles NNE 11.5 mph - 0.03 in Snow Light Snow
11:23 PM 33.8°F 32.0°F 93% 29.62 in 0.8 miles NNE 12.7 mph - 0.03 in Snow Light Snow
11:53 PM 33.1°F 32.0°F 96% 29.67 in 0.5 miles NNE 12.7 mph - 0.07 in Fog , Snow Snow
Moon Phase
Dec. 23 Dec. 28 Jan. 04 Jan. 11 Jan. 18
Sunrise:07:37 AM (PST) Moon Rise:01:02 PM (PST)12/23
Sunset:04:00 PM (PST) Moon Set:03:15 AM (PST)12/23

Copyright © 2014 The Weather Underground, Inc.